COSMOS 1900 DEB, 43501

Orbit data source: Space-Track

COSMOS 1900 DEB, 43501 is space debris in LEO originally from a launch on Sat, 12 Dec 1987 UTC launched from the Tyuratam Missile And Space Complex (TTMTR). Debris objects in space refer to the collection of defunct objects orbiting the Earth. Examples of debris include non-operational satellites, rocket bodies, and fragments generated from explosions, collisions, or faulty payload assembly.

Loading next visibility...
Identifier
43501, 1987-101F
Orbit
LEO
Country
Flag of CISCIS
Related business
Manufacturer
Unknown
Mission
Spacecraft
Bus & Motor
Unknown
Mass
Unknown
Launch date (UTC)
1987-12-12 (38 years ago)
Launch vehicle
Unknown
Launch site
Tyuratam Missile And Space Complex (TTMTR)
Object type
Payload
Rocket body
Debris
Shape & HBR
Unknown
Radar Cross Section
Small (<0.1 m²)

Expand to show TLE details & history
Last TLE update: 3 days ago

TLE from 3 days ago
0 COSMOS 1900 DEB
1 43501U 87101F   25257.17173409  .00000366  00000-0  10121-3 0  9996
2 43501  66.0829  56.0026 0044127 264.5930  95.0142 14.58125320196022
Epoch: 2025-09-14T04:07Z
TLE epoch observation values (Epoch: 2025-09-14T04:07:17.825Z)
Latitude
-0.00005°
Longitude
0.78374°
Altitude
704.185 km
Speed
7.503 km/s
True Right ascension
03h 44m 00s
True Declination
0° 00' 00"
Sunlit
Object was in full shadow at epoch
Visualization orbit readout
Latitude
Unknown
Longitude
Unknown
Altitude
Unknown
Speed
Unknown
Apparent Right ascension
Unknown
Apparent Declination
Unknown
Sunlit
N/A
Visualization observer readout
Local Sidereal Time
06:58:38
Azimuth
Unknown
Elevation
Unknown
Doppler factor
Unknown
Orbital elements
Apogee altitude
728.884 km
Perigee altitude
666.438 km
Semi-major axis
7,075.798 km
Eccentricity
0.00441
Inclination
66.0829°
RAAN
56.0026°
Arg. of periapsis
264.593°
True anomaly
95.51767°
Mean anomaly
95.0142°
Eccentric anomaly
95.26596°
Mean motion
3.64653 °/min
Orbital period
98.72 mins
BSTAR
0.00010121
Loading maneuver chart data...
Computing Atmospheric mass density...
Loading historical data...
Loading historical data...
Loading historical data...
Loading historical data...
Loading historical data...
Loading historical data...
Loading historical data...

Documentation

Showing up to 5 results
|